Temperature
4 5 5 5 5 5 4 4 4 5 6 6 6 6 6 6 6 5 5 4 4 3 3 3 3 3 2 2 2 2 2 2 2 2 2 2 1 1 1 1 1 1 1 1
3 5 5 5 5 5 4 4 5 5 5 6 6 6 6 5 5 5 4 4 3 3 3 2 2 2 2 2 2 2 1 1 1 1 1 1 1 1 1 1 1 1 1 1
3 4 4 4 4 4 4 5 5 4 5 5 5 5 5 5 5 4 4 4 3 3 3 2 2 2 2 2 1 1 1 1 1 1 1 1 1 1 1 1 0 0 0 0
3 3 3 5 6 5 4 5 5 4 5 5 5 5 5 5 4 4 3 3 3 3 2 2 2 2 1 1 1 1 1 1 1 1 0 0 0 0 0 0 0 0 -0 -0
3 3 4 5 5 5 4 4 5 4 4 4 4 4 4 5 4 3 3 3 3 2 2 2 2 1 1 1 1 1 0 0 0 0 0 -0 -0 -0 -0 -0 -0 -0 -1 -1
2 3 3 5 4 4 4 3 4 4 4 3 3 2 3 4 3 3 3 3 2 2 2 2 1 1 1 0 0 0 0 -0 -0 -0 -0 -0 -0 -0 -1 -1 -1 -1 -1 -1
2 2 3 4 4 4 3 4 4 4 4 3 2 3 3 3 3 3 3 2 2 2 2 1 1 1 0 0 0 -0 -0 -0 -0 -0 -1 -1 -1 -1 -1 -1 -1 -1 -1 -1
1 2 3 3 2 2 3 4 4 4 4 3 3 3 3 2 2 2 2 2 2 2 1 1 1 0 0 0 -0 -0 -0 -0 -0 -1 -1 -1 -1 -1 -1 -1 -1 -1 -2 -2
2 3 4 4 4 4 4 3 3 3 3 3 3 2 2 2 2 2 2 2 1 1 1 1 1 0 -0 -0 -0 -0 -0 -1 -1 -1 -1 -1 -1 -1 -1 -2 -2 -2 -2 -2
2 2 4 4 4 4 3 3 3 3 3 2 2 2 2 2 2 1 1 1 1 1 1 0 0 0 -0 -0 -0 -0 -1 -1 -1 -1 -1 -1 -1 -2 -2 -2 -2 -2 -3 -3
1 2 3 4 4 3 3 3 3 3 2 2 2 2 1 1 1 1 1 1 0 0 0 0 -0 -0 -0 -0 -1 -1 -1 -1 -1 -1 -1 -1 -1 -2 -2 -2 -2 -2 -3 -3
2 3 2 3 3 3 3 2 2 2 2 2 1 1 1 1 1 1 0 0 0 0 -0 -0 -0 -0 -0 -0 -1 -1 -1 -1 -1 -1 -1 -2 -2 -2 -2 -2 -2 -3 -3 -3
3 3 3 3 3 2 2 2 2 1 1 1 1 1 0 0 0 0 0 0 -0 -0 -0 -1 -1 -1 -1 -1 -1 -1 -1 -1 -1 -1 -2 -2 -2 -2 -2 -2 -3 -3 -3 -3
3 3 2 2 2 2 2 2 1 1 1 1 1 0 0 0 0 -0 -0 -0 -0 -1 -1 -1 -1 -1 -1 -1 -1 -1 -1 -1 -2 -2 -2 -2 -2 -3 -3 -3 -3 -3 -3 -4
2 2 2 1 1 1 1 1 1 1 1 0 0 0 -0 -0 -0 -0 -0 -1 -1 -1 -1 -1 -1 -1 -1 -1 -1 -1 -2 -2 -2 -2 -2 -2 -3 -3 -3 -3 -3 -3 -4 -4
1 1 1 1 1 0 0 0 0 0 0 0 0 -0 -0 -0 -1 -1 -1 -1 -1 -1 -1 -1 -1 -1 -1 -2 -2 -2 -2 -2 -2 -2 -2 -3 -3 -3 -3 -3 -4 -4 -4 -4
1 0 0 0 0 0 0 0 0 0 -0 -0 -0 -0 -1 -1 -1 -1 -1 -1 -1 -2 -2 -2 -2 -2 -2 -2 -2 -2 -2 -2 -2 -2 -3 -3 -3 -3 -4 -4 -4 -4 -4 -4
1 1 1 0 0 -0 -0 -0 -0 -0 -0 -0 -1 -1 -1 -1 -1 -1 -2 -2 -2 -2 -2 -2 -2 -2 -2 -2 -2 -2 -2 -2 -3 -3 -3 -3 -3 -3 -4 -4 -4 -4 -4 -5
1 0 0 0 -0 -0 -0 -0 -0 -1 -1 -1 -1 -1 -1 -1 -2 -2 -2 -2 -2 -2 -2 -2 -2 -2 -2 -2 -2 -2 -3 -3 -3 -3 -3 -3 -4 -4 -4 -4 -4 -4 -4 -5
0 0 -0 -0 -1 -1 -1 -1 -1 -1 -1 -1 -1 -1 -2 -2 -2 -2 -2 -2 -2 -2 -2 -2 -2 -2 -2 -2 -3 -3 -3 -3 -3 -3 -4 -4 -4 -4 -4 -4 -4 -4 -5 -5
0 -0 -1 -1 -1 -1 -1 -1 -1 -1 -2 -2 -2 -2 -2 -2 -2 -2 -2 -2 -2 -3 -3 -3 -3 -3 -3 -3 -3 -3 -3 -3 -4 -4 -4 -4 -4 -4 -4 -5 -5 -5 -5 -5
-0 -1 -1 -1 -1 -1 -1 -1 -2 -2 -2 -2 -2 -2 -2 -2 -2 -2 -3 -3 -3 -3 -3 -3 -3 -3 -3 -3 -3 -4 -4 -4 -4 -4 -4 -4 -5 -5 -5 -5 -5 -5 -5 -5
-1 -1 -1 -1 -1 -2 -2 -2 -2 -2 -2 -2 -2 -3 -2 -3 -3 -3 -3 -3 -3 -3 -3 -3 -3 -3 -3 -4 -4 -4 -4 -4 -4 -5 -5 -5 -5 -5 -5 -5 -5 -5 -5 -5
-1 -1 -1 -2 -2 -2 -2 -2 -2 -2 -3 -3 -3 -3 -3 -3 -3 -3 -3 -3 -3 -3 -3 -3 -3 -4 -4 -4 -4 -4 -5 -5 -5 -5 -5 -5 -5 -5 -5 -5 -5 -5 -5 -6
-1 -1 -2 -2 -2 -2 -2 -3 -3 -3 -3 -3 -3 -3 -3 -3 -3 -3 -3 -3 -3 -3 -3 -4 -4 -4 -4 -4 -4 -5 -5 -5 -5 -5 -5 -6 -6 -6 -6 -6 -6 -6 -6 -6
-2 -2 -2 -2 -2 -3 -3 -3 -3 -3 -3 -3 -3 -3 -3 -3 -3 -4 -4 -4 -4 -4 -4 -4 -4 -4 -4 -5 -5 -5 -5 -5 -6 -6 -6 -6 -6 -6 -6 -6 -6 -6 -6 -6
-2 -2 -2 -3 -3 -3 -3 -4 -4 -4 -4 -4 -4 -4 -4 -4 -4 -4 -4 -4 -4 -4 -4 -4 -4 -5 -5 -5 -5 -5 -6 -6 -6 -6 -6 -6 -6 -6 -6 -6 -6 -6 -6 -6
Wind_Speed
10 11 8 10 10 9 12 11 9 11 12 12 8 6 4 3 4 4 3 3 3 2 2 2 2 2 2 2 2 2 2 2 2 2 1 1 2 2 2 2 3 3 3 3
7 9 9 11 11 11 13 13 16 17 17 11 8 5 4 4 4 4 4 3 3 3 3 2 3 2 2 2 2 2 2 2 2 2 2 2 2 2 2 3 3 3 2 3
5 4 5 9 9 11 8 9 9 13 12 8 8 6 5 6 4 4 4 3 2 2 2 2 2 2 2 2 1 1 1 2 2 2 2 2 2 2 2 3 3 2 2 2
4 3 7 6 3 6 9 10 10 9 8 7 7 6 5 5 3 3 3 3 3 2 2 1 1 1 1 1 1 1 2 2 2 1 2 2 1 2 2 2 2 2 3 2
3 5 8 5 3 3 5 7 6 9 9 7 5 5 5 3 2 3 3 2 2 1 1 1 1 1 1 1 1 1 2 2 2 2 2 2 2 2 2 2 2 2 2 2
4 5 6 3 1 1 2 6 5 5 6 5 2 3 5 3 3 2 2 0 0 0 1 0 1 1 2 1 1 2 2 2 2 2 2 2 2 2 2 2 3 2 2 2
8 7 6 3 3 4 2 6 3 3 4 3 4 5 4 4 3 2 1 0 0 1 0 1 1 2 2 1 2 2 1 1 1 1 2 2 2 2 2 2 2 1 2 2
6 6 8 3 5 5 6 3 3 4 4 3 4 4 4 4 3 2 1 1 0 0 1 1 1 2 2 2 2 1 1 1 1 2 2 2 2 2 1 1 1 2 2 1
8 8 3 6 6 4 2 4 4 4 5 4 4 4 4 4 3 2 2 1 1 1 1 1 1 2 3 2 2 1 1 1 1 2 1 1 1 2 1 1 1 2 2 2
6 8 6 5 5 4 4 5 5 4 4 4 4 5 4 3 3 3 2 1 1 1 2 2 2 2 3 2 1 1 1 2 1 1 1 1 1 1 1 2 2 2 2 2
7 7 6 6 5 5 4 4 4 4 3 3 3 4 4 4 3 3 2 1 1 2 3 3 2 2 2 2 2 2 2 2 1 1 1 1 1 1 2 2 3 3 3 2
8 5 5 5 3 3 4 4 4 4 4 3 3 4 4 4 3 3 2 2 2 2 3 3 2 2 2 2 3 2 2 2 1 1 1 1 1 2 2 2 3 3 3 3
8 4 4 5 4 3 4 3 3 3 4 4 3 3 3 4 3 2 2 2 3 3 3 3 2 2 2 2 2 3 3 2 1 1 1 1 1 1 2 2 2 2 3 3
7 5 6 5 5 3 3 3 3 3 3 3 3 2 2 3 3 3 3 3 3 3 3 3 2 3 2 2 2 2 2 2 2 2 2 1 1 1 1 1 2 2 2 3
6 5 6 4 4 3 3 2 2 3 3 3 2 2 2 3 4 4 4 2 2 2 2 2 3 3 2 2 2 3 2 2 2 2 1 1 1 1 1 2 1 1 1 1
4 4 4 4 5 4 3 3 3 4 3 3 3 3 3 3 3 3 2 2 2 3 3 3 3 3 2 2 2 2 2 2 1 1 1 1 1 1 2 2 1 1 2 1
5 5 5 5 5 4 4 4 4 4 3 3 3 3 2 2 2 3 3 3 3 3 3 3 3 2 2 2 3 2 2 2 2 1 2 2 1 2 2 2 1 1 1 1
7 6 6 5 5 4 4 3 3 3 3 3 2 2 2 2 3 4 3 2 2 2 2 2 2 1 2 2 2 2 2 2 2 2 2 1 1 1 1 1 1 1 1 1
4 4 4 3 4 4 3 3 3 3 3 2 2 2 3 3 3 3 2 2 2 3 3 2 2 1 2 2 2 2 2 2 1 1 1 1 1 1 1 1 1 1 1 1
4 3 3 2 2 2 3 2 2 2 2 2 2 2 2 3 3 2 2 2 3 3 2 1 1 1 1 2 2 2 2 2 2 1 1 1 1 1 1 1 1 1 1 1
4 3 3 2 1 1 2 2 2 2 2 2 2 3 3 3 2 2 2 3 3 2 1 1 1 1 1 1 2 2 2 2 2 2 2 1 1 1 1 1 1 1 1 1
3 3 3 2 2 1 1 1 1 1 1 2 2 2 2 2 2 2 2 3 3 2 1 0 0 1 1 1 1 1 2 2 1 1 1 1 1 2 1 1 1 1 1 1
2 2 2 2 2 1 1 1 1 1 2 2 2 2 2 2 2 2 3 2 1 1 0 0 1 1 1 1 1 1 1 1 1 1 1 1 1 1 1 1 1 1 1 1
2 2 2 1 1 1 1 2 1 1 1 2 2 2 2 2 2 2 2 2 2 1 1 1 0 1 1 1 1 1 1 1 1 1 1 1 1 1 1 1 1 1 1 1
2 2 1 2 2 2 2 1 1 1 1 1 1 1 1 1 2 2 1 1 1 1 1 1 1 1 0 0 1 1 1 1 1 1 1 1 1 1 1 1 1 1 1 1
2 2 2 2 2 1 1 1 1 1 1 1 1 1 1 1 1 1 1 1 1 1 1 0 0 1 0 1 1 1 1 1 1 1 1 1 1 1 1 1 1 1 1 1
1 1 1 0 1 1 1 1 2 2 2 2 2 1 1 1 1 0 0 0 0 1 0 0 0 0 0 0 0 0 0 0 0 0 1 1 1 1 1 1 1 1 1 0
Wind_Direction
266 276 268 256 250 233 228 231 242 261 270 278 287 285 288 281 272 274 255 216 213 228 235 224 219 220 214 213 212 216 216 219 234 245 250 265 280 281 279 284 279 269 271 273
270 257 259 263 255 241 238 240 249 264 272 280 293 293 293 278 265 265 261 232 233 235 235 232 221 220 224 216 208 200 209 223 234 239 244 253 268 276 277 280 278 272 271 270
263 277 289 264 239 227 228 226 231 249 261 293 299 292 281 279 263 260 268 252 235 232 234 234 219 212 230 226 206 197 226 239 236 237 249 247 255 263 265 270 277 272 269 274
272 291 250 244 181 197 224 242 237 253 277 291 287 289 284 279 267 282 285 259 249 241 240 237 202 197 214 191 181 203 227 244 243 234 254 256 255 268 272 276 279 271 265 266
240 258 269 269 243 194 217 259 248 252 270 287 303 311 292 281 290 277 280 264 246 233 221 198 192 177 154 175 171 196 232 244 243 225 245 251 251 263 265 265 270 268 270 265
232 246 253 257 125 91 134 273 277 266 269 278 308 292 282 325 325 304 320 345 331 10 22 183 215 167 160 192 193 222 237 247 248 228 240 252 245 251 261 255 253 254 262 258
231 245 261 258 149 118 177 262 306 290 279 267 239 245 278 312 315 303 309 328 101 114 224 222 200 165 181 201 227 239 240 249 254 243 247 253 249 245 251 250 249 253 259 264
205 228 251 184 144 189 232 292 303 303 299 285 277 286 294 303 299 308 312 342 79 233 277 265 198 177 203 226 237 223 208 233 254 258 261 267 247 256 242 222 224 243 253 271
203 220 232 177 198 222 248 284 290 298 303 294 286 284 282 282 282 289 280 261 256 251 281 279 220 193 215 235 216 191 200 233 258 267 266 272 244 248 235 209 218 238 240 248
245 252 256 241 240 249 256 263 274 277 281 286 282 285 289 287 282 276 268 257 254 240 258 270 253 222 220 216 191 188 214 234 244 248 270 275 245 226 214 212 222 230 240 246
246 262 278 261 251 258 268 277 282 280 273 271 269 280 286 289 282 270 273 261 235 226 243 257 258 239 213 200 184 190 219 239 247 244 249 262 259 243 237 231 226 222 226 229
239 229 220 249 247 251 259 266 268 278 283 281 260 270 285 284 277 267 267 274 264 253 249 260 259 250 220 202 190 188 213 231 238 232 252 268 302 327 307 268 267 259 258 257
242 253 249 262 259 251 253 261 262 262 265 277 286 276 275 278 279 267 265 268 258 254 252 253 253 253 242 215 198 196 206 219 228 230 242 253 260 268 307 315 292 265 260 267
238 248 264 261 256 255 258 258 256 261 268 267 275 285 283 282 284 274 266 262 256 251 250 246 245 253 248 212 200 205 207 219 221 216 222 229 234 246 250 266 293 297 273 264
237 231 238 254 256 255 250 247 245 255 266 275 274 273 267 264 268 268 269 267 261 252 253 247 246 259 252 198 194 205 207 213 214 204 213 221 226 239 250 254 268 284 288 273
236 241 242 243 245 247 247 247 247 254 256 263 268 273 266 259 265 271 269 249 238 251 257 252 255 264 240 198 195 206 214 227 219 206 214 228 228 233 243 247 261 270 256 253
223 236 231 233 237 243 245 243 242 247 254 260 261 268 278 278 286 286 281 265 247 248 250 252 258 254 215 200 192 199 199 209 222 220 216 223 228 230 233 238 247 266 263 244
222 225 218 213 220 232 246 249 249 249 251 254 256 256 258 258 264 274 283 289 295 290 273 260 258 239 213 198 187 186 189 192 200 215 219 221 234 231 224 225 232 251 283 249
212 217 222 222 222 222 231 244 249 251 251 235 230 243 249 254 260 270 279 283 282 286 291 277 258 226 214 203 176 173 175 182 194 208 212 244 258 228 217 220 230 237 237 237
205 204 204 214 226 223 228 237 240 252 248 228 222 248 265 270 272 271 267 262 263 269 273 276 239 218 210 197 168 166 175 182 189 198 204 210 226 241 234 238 243 248 240 231
191 189 189 196 223 244 235 224 216 238 249 229 221 238 256 272 273 261 263 278 288 296 277 262 235 228 196 177 173 168 176 182 189 199 208 218 230 239 242 241 243 254 256 251
187 183 191 194 198 247 272 237 209 220 242 246 240 243 261 280 284 278 260 261 282 305 311 257 236 204 186 173 167 175 185 184 188 194 204 211 224 236 241 244 243 254 259 257
178 178 182 189 191 209 295 298 239 225 239 245 241 241 248 260 260 264 286 299 307 304 305 252 250 213 189 171 173 182 193 192 192 199 206 210 220 230 237 244 247 247 249 256
167 172 180 171 149 153 237 270 258 242 244 249 237 238 246 266 283 268 268 283 304 298 283 284 237 208 188 163 170 182 198 202 202 202 202 207 217 226 232 237 243 242 243 250
162 164 169 176 193 219 227 233 256 289 279 270 258 255 247 237 249 275 293 297 306 322 318 282 259 221 162 162 177 189 201 209 203 188 196 208 218 219 219 226 234 237 245 257
189 192 201 204 201 208 211 209 234 249 250 282 301 310 320 321 257 253 276 293 299 314 320 307 256 229 183 185 194 196 208 238 245 224 203 210 213 207 204 212 211 214 223 246
165 175 173 188 242 217 207 204 214 232 232 234 270 290 297 321 329 315 310 304 306 320 323 338 23 223 211 206 203 209 208 199 191 200 213 226 228 221 215 207 206 197 185 207
Height
1468 1464 1463 1463 1463 1464 1466 1464 1463 1451 1446 1439 1438 1438 1436 1436 1435 1435 1434 1434 1434 1434 1434 1434 1433 1433 1433 1433 1432 1432 1432 1432 1433 1433 1433 1433 1433 1433 1432 1432 1431 1430 1430 1429
1467 1461 1459 1458 1455 1456 1457 1456 1453 1448 1443 1436 1436 1435 1434 1433 1432 1431 1431 1431 1431 1431 1431 1430 1430 1430 1429 1429 1429 1429 1429 1429 1430 1430 1430 1430 1429 1429 1429 1428 1428 1427 1427 1426
1465 1459 1459 1456 1448 1449 1449 1445 1446 1445 1439 1435 1434 1433 1432 1430 1429 1429 1428 1427 1427 1427 1427 1427 1426 1426 1425 1425 1425 1425 1425 1426 1426 1426 1426 1426 1426 1426 1426 1425 1425 1424 1424 1423
1466 1463 1461 1442 1437 1438 1441 1439 1438 1436 1434 1433 1432 1430 1428 1427 1426 1426 1425 1424 1424 1424 1423 1423 1423 1423 1422 1422 1422 1422 1422 1422 1423 1423 1423 1423 1423 1423 1423 1422 1422 1421 1421 1420
1465 1460 1448 1439 1436 1437 1439 1437 1432 1432 1431 1430 1429 1427 1425 1424 1424 1423 1423 1422 1421 1421 1421 1420 1420 1420 1420 1419 1419 1419 1419 1419 1419 1419 1419 1419 1419 1419 1419 1419 1418 1418 1418 1418
1462 1459 1451 1437 1436 1434 1438 1437 1429 1428 1428 1427 1427 1430 1425 1423 1422 1421 1420 1420 1419 1419 1418 1418 1418 1418 1417 1417 1417 1417 1417 1417 1417 1416 1416 1416 1415 1416 1416 1416 1415 1415 1415 1415
1459 1455 1444 1436 1434 1435 1442 1435 1428 1426 1425 1425 1425 1426 1423 1421 1420 1419 1418 1417 1417 1416 1416 1416 1416 1415 1415 1414 1414 1415 1414 1414 1414 1413 1413 1413 1413 1413 1413 1413 1413 1412 1412 1413
1455 1453 1444 1433 1434 1435 1432 1427 1426 1425 1424 1423 1422 1421 1420 1419 1417 1416 1415 1415 1414 1414 1413 1413 1413 1413 1412 1412 1412 1412 1412 1411 1411 1410 1410 1410 1410 1410 1410 1410 1410 1410 1410 1410
1442 1437 1429 1427 1427 1426 1426 1425 1424 1423 1422 1421 1419 1418 1417 1416 1415 1414 1413 1413 1412 1412 1411 1411 1411 1410 1410 1410 1410 1410 1409 1409 1408 1408 1408 1407 1407 1407 1407 1407 1407 1407 1407 1407
1433 1426 1424 1424 1423 1423 1423 1423 1422 1421 1420 1419 1417 1415 1414 1413 1412 1412 1411 1410 1410 1409 1409 1409 1409 1408 1408 1408 1408 1407 1407 1406 1406 1406 1405 1405 1405 1404 1404 1404 1404 1404 1404 1404
1427 1423 1421 1419 1420 1420 1419 1419 1418 1417 1416 1415 1414 1413 1412 1411 1410 1409 1408 1408 1408 1407 1407 1406 1406 1406 1406 1405 1405 1405 1404 1404 1404 1403 1403 1402 1402 1402 1402 1402 1402 1402 1401 1401
1421 1417 1418 1416 1416 1416 1415 1415 1414 1414 1413 1412 1411 1410 1409 1408 1407 1406 1405 1405 1405 1404 1404 1404 1403 1403 1403 1402 1402 1402 1401 1401 1401 1401 1400 1400 1399 1399 1399 1399 1399 1399 1399 1399
1412 1412 1412 1412 1412 1412 1412 1411 1411 1410 1410 1408 1408 1407 1406 1405 1404 1403 1402 1402 1402 1401 1401 1401 1401 1400 1400 1400 1399 1399 1399 1398 1398 1398 1398 1397 1397 1396 1396 1397 1397 1397 1396 1396
1408 1408 1408 1408 1408 1408 1408 1408 1407 1407 1406 1405 1405 1404 1403 1402 1401 1401 1400 1400 1399 1399 1398 1398 1398 1397 1397 1397 1397 1396 1396 1396 1396 1396 1395 1395 1395 1394 1394 1393 1393 1393 1394 1394
1403 1404 1403 1403 1404 1404 1404 1404 1403 1403 1402 1402 1402 1401 1400 1399 1398 1398 1397 1397 1397 1396 1395 1395 1394 1394 1394 1394 1394 1393 1393 1393 1393 1393 1393 1393 1392 1392 1392 1392 1391 1391 1391 1391
1398 1399 1399 1399 1399 1400 1400 1400 1399 1399 1399 1399 1398 1398 1397 1396 1396 1395 1394 1394 1393 1393 1392 1392 1391 1391 1391 1391 1391 1391 1391 1391 1391 1391 1390 1390 1390 1390 1389 1389 1389 1388 1388 1388
1394 1393 1394 1395 1395 1395 1396 1396 1396 1396 1396 1395 1395 1395 1394 1393 1393 1392 1392 1391 1391 1390 1390 1389 1388 1388 1388 1388 1388 1388 1388 1388 1389 1388 1388 1388 1387 1387 1387 1387 1387 1386 1386 1386
1388 1389 1390 1390 1391 1391 1392 1392 1393 1393 1392 1392 1392 1392 1391 1390 1389 1389 1389 1388 1388 1387 1387 1386 1386 1385 1385 1385 1385 1385 1385 1385 1386 1386 1386 1385 1385 1385 1385 1385 1385 1385 1384 1385
1384 1385 1386 1386 1387 1388 1388 1389 1389 1389 1389 1389 1389 1388 1388 1388 1387 1387 1386 1386 1385 1384 1384 1384 1384 1383 1382 1382 1382 1382 1383 1383 1383 1383 1384 1383 1383 1383 1383 1383 1383 1383 1383 1383
1381 1381 1382 1383 1384 1385 1385 1385 1386 1386 1386 1386 1386 1385 1385 1385 1385 1384 1383 1383 1383 1382 1382 1382 1381 1380 1380 1380 1380 1380 1380 1380 1381 1381 1381 1381 1381 1381 1381 1381 1381 1381 1381 1381
1378 1378 1379 1380 1381 1382 1382 1382 1382 1382 1383 1383 1383 1383 1382 1382 1382 1381 1381 1380 1380 1380 1379 1379 1379 1378 1378 1378 1378 1378 1378 1378 1378 1379 1379 1379 1379 1379 1379 1379 1379 1379 1379 1379
1375 1376 1377 1378 1378 1379 1379 1380 1380 1380 1380 1380 1380 1380 1380 1380 1379 1379 1379 1378 1378 1378 1377 1377 1376 1376 1376 1376 1376 1376 1376 1376 1376 1377 1377 1377 1377 1377 1377 1377 1377 1377 1377 1377
1373 1374 1375 1376 1376 1376 1377 1377 1377 1378 1377 1378 1378 1378 1378 1377 1377 1377 1376 1376 1376 1375 1375 1375 1374 1374 1374 1374 1374 1374 1374 1374 1374 1375 1375 1375 1375 1375 1375 1375 1375 1375 1375 1375
1372 1372 1373 1374 1375 1375 1375 1375 1375 1375 1375 1375 1376 1376 1376 1375 1375 1375 1374 1374 1374 1373 1373 1372 1372 1372 1372 1371 1371 1371 1372 1372 1372 1372 1373 1373 1373 1373 1373 1374 1374 1374 1374 1374
1370 1370 1371 1372 1372 1372 1373 1373 1373 1373 1373 1373 1373 1374 1374 1373 1373 1373 1372 1372 1371 1371 1370 1370 1370 1369 1369 1369 1369 1369 1370 1370 1370 1370 1370 1371 1371 1371 1371 1372 1372 1372 1372 1372
1368 1368 1369 1370 1370 1371 1371 1371 1370 1370 1371 1371 1370 1371 1371 1371 1370 1370 1370 1370 1369 1369 1368 1368 1367 1367 1367 1367 1367 1367 1367 1368 1368 1368 1369 1369 1369 1369 1370 1370 1370 1370 1370 1370
1366 1366 1367 1367 1368 1368 1368 1368 1368 1368 1368 1368 1368 1368 1368 1368 1368 1368 1368 1367 1367 1366 1366 1366 1366 1365 1365 1365 1366 1366 1366 1366 1366 1367 1367 1367 1367 1368 1368 1368 1368 1368 1368 1368